Location: Asheville, NC
(35.6000°N, 82.5500°W)
Time: 13:39:49
(UTC-05:00)

KAITUO 1B - Pass Details

Date: 17 February 2018
Orbit: 499 x 522 km, 97.5° (Epoch: 21 February)

Event Time Altitude Azimuth Distance (km) Brightness Sun altitude
Rises 19:11:39 0° 213° (SSW) 2,583 ? -12.3°
Reaches altitude 10° 19:15:15 10° 252° (WSW) 1,702 ? -13.1°
Maximum altitude 19:16:15 11° 267° (W) 1,647 ? -13.3°
Drops below altitude 10° 19:17:15 10° 283° (WNW) 1,703 ? -13.5°
Sets 19:20:52 0° 322° (NW) 2,591 ? -14.2°
